sat.trackr.live / text

‹ back to catalog

STARLINK-5569

NORAD 55379 · 2023-013BA

PAYLOAD ACTIVE UNKNOWN

§ Identity

Operator
Country
US
Launch date
2023-01-26
Launch site
AFETR
Launch vehicle
Mass (kg)
RCS (m²)

Purposes: comms

External: N2YO · Heavens-Above · Gunter

§ Orbital elements

Epoch: 2026-05-25T00:15:15.829632Z

Period
94.27 min
Inclination
43.0049°
Eccentricity
0.0001995
Mean motion
15.27577583 rev/d
Perigee alt
481.7 km
Apogee alt
484.4 km
Semi-major
6,861.2 km
B*
1.3791e-5
RAAN
247.2459°
Arg perigee
276.2482°
Mean anomaly
83.8142°
Rev number
18,317

§ Raw data

STARLINK-55691 55379U 23013BA  26145.01059988  .00000117  00000+0  13791-4 0  99992 55379  43.0049 247.2459 0001995 276.2482  83.8142 15.27577583183175

JSON: /api/v1/satellites/55379 · /tle

For live sub-satellite position, see the globe view (requires WebGL).

§ Visibility from observer

Set your observer location to see the next 7 days of passes ≥ 10°. The values pass through the URL so the page stays shareable.

No JS? Fill the form by hand. The geolocation button needs JavaScript.